NOAA NWS Hourly Roundups by Site

Regional Weather Roundup for Topeka, KS

To Select Another Site Choose from List

Select Site:  

370
ASUS43 KTOP 240408
RWRKS

WEATHER ROUNDUP FOR KANSAS
NATIONAL WEATHER SERVICE GOODLAND KS
1100 PM CDT TUE APR 23 2019

NOTE:  "FAIR" INDICATES FEW OR NO CLOUDS BELOW 12,000 FEET WITH NO
SIGNIFICANT WEATHER AND/OR OBSTRUCTIONS TO VISIBILITY.

KSZ001>006-013>018-027>032-041>047-240500-
NORTHWEST KANSAS

CITY           SKY/WX    TMP DP  RH WIND       PRES   REMARKS
GOODLAND       PTCLDY    46  33  60 S9        30.00F
HAYS           CLOUDY    53  40  61 W5        30.00F
HILL CITY      CLOUDY    49  37  63 CALM      30.01F
RUSSELL        CLOUDY    53  45  74 SW5       29.99S
$$

KSZ061>065-074>080-084>089-240500-
SOUTHWEST KANSAS

CITY           SKY/WX    TMP DP  RH WIND       PRES   REMARKS
DODGE CITY     CLOUDY    49  42  77 W3        30.01F
ELKHART        CLEAR     46  45  96 W7        30.06S
GARDEN CITY    CLOUDY    43  42  97 W3        30.03S
GREAT BEND       N/A     51  49  92 SW5       30.00F
LIBERAL        CLOUDY    41  40  96 W8        30.06S
PRATT          CLOUDY    51  50  95 SW5       30.02S
$$

KSZ066>073-081>083-090>101-240500-
SOUTHEAST KANSAS

CITY           SKY/WX    TMP DP  RH WIND       PRES   REMARKS
CHANUTE        CLOUDY    56  52  86 N5        30.00F FOG
COFFEYVILLE    CLOUDY    56  53  90 N6        29.99R
HUTCHINSON     CLOUDY    51  48  89 CALM      30.00F
MEDICINE LODGE   N/A     51  50  96 CALM      30.01F
NEWTON         CLOUDY    51  48  89 CALM      30.01F
PARSONS        CLOUDY    55  53  93 N3        30.01S FOG
WICHITA INTL   CLOUDY    55  48  77 E3        30.00F
WICHITA JABRA  CLOUDY    53  50  89 CALM      30.00F
WICHITA MCCONL CLOUDY    54  50  86 NE3       30.00F
WINFIELD       CLOUDY    54  51  90 N5        30.00F
$$

KSZ007>012-019>026-033>040-048>060-102>105-240500-
NORTHEAST KANSAS

CITY           SKY/WX    TMP DP  RH WIND       PRES   REMARKS
CONCORDIA      CLOUDY    52  47  83 SW7       30.00S
EMPORIA        CLOUDY    52  51  97 CALM      30.01R
LAWRENCE       CLOUDY    52  50  93 CALM      29.99F
MANHATTAN      CLOUDY    52  48  86 SW3       30.00S
MARYSVILLE     CLOUDY    52  46  82 CALM      30.00S
OLATHE IND     CLOUDY    53  50  89 NW3       30.00F
OLATHE EXE     CLOUDY    52  52 100 CALM      29.99F
SALINA         LGT RAIN  51  49  92 S3        30.01F
TOPEKA BILLARD CLOUDY    53  47  79 CALM      30.00F
TOPEKA FORBES  MOCLDY    51  48  89 S5        30.00F
$$



 

View Past Reports for Topeka, KS.

Products Courtesy of NOAA-NWS
NWS Information Parsing Script by Ken True at Saratoga Weather - Script by SE Lincoln Weather.